DW7259 Weather Reports


Display with metric or nautical units.
time (UTC)temp
F
wind
direction
speed
MPH
gust
MPH
rain 1hr
in
rain 24hr
in
rain mn
in
humidity
%
barometer
mb
20260906203012 77 178 16.0 26.0 0.00 0.00 0.00 24 1004.7
20260906201509 76 360 15.0 21.0 0.00 0.00 0.00 24 1004.9
20260906200010 75 360 13.0 29.0 0.00 0.00 0.00 23 1005.0
20260906194508 76 360 13.0 24.0 0.00 0.00 0.00 21 1005.1
20260906193005 75 22 0.0 9.0 0.00 0.00 0.00 28 1005.1
20260906191505 74 325 4.0 14.0 0.00 0.00 0.00 28 1005.1
20260906190114 73 313 1.0 13.0 0.00 0.00 0.00 29 1005.1
20260906184557 72 15 3.0 8.0 0.00 0.00 0.00 32 1005.6
20260906183055 71 237 2.0 6.0 0.00 0.00 0.00 37 1005.7
20260906181547 70 239 5.0 10.0 0.00 0.00 0.00 38 1005.8
20260906180044 68 244 2.0 7.0 0.00 0.00 0.00 44 1006.1
20260906174542 66 271 4.0 8.0 0.00 0.00 0.00 46 1006.3
20260906173034 65 49 0.0 10.0 0.00 0.00 0.00 44 1006.5
20260906171531 65 55 3.0 8.0 0.00 0.00 0.00 45 1006.6
20260906170031 63 59 1.0 6.0 0.00 0.00 0.00 48 1006.7
20260906164523 62 360 0.0 4.0 0.00 0.00 0.00 49 1006.9
20260906163019 62 360 1.0 7.0 0.00 0.00 0.00 49 1006.9
20260906161521 62 360 0.0 4.0 0.00 0.00 0.00 50 1007.3
20260906160011 61 360 0.0 2.0 0.00 0.00 0.00 53 1007.4
20260906154513 61 360 0.0 0.0 0.00 0.00 0.00 53 1007.7
20260906153004 58 360 0.0 0.0 0.00 0.00 0.00 56 1007.8
20260906151600 57 360 0.0 0.0 0.00 0.00 0.00 59 1007.8
20260906150059 55 360 0.0 0.0 0.00 0.00 0.00 63 1007.8
20260906144552 53 168 0.0 0.0 0.00 0.00 0.00 65 1007.7
20260906143046 51 360 0.0 0.0 0.00 0.00 0.00 67 1007.6
20260906141544 50 360 0.0 0.0 0.00 0.00 0.00 68 1007.5
20260906140038 48 360 0.0 0.0 0.00 0.00 0.00 69 1007.4
20260906134546 48 169 0.0 7.0 0.00 0.00 0.00 68 1007.2
20260906133049 47 360 0.0 8.0 0.00 0.00 0.00 69 1007.2
20260906131531 47 167 0.0 8.0 0.00 0.00 0.00 69 1007.1
20260906130031 47 360 5.0 11.0 0.00 0.00 0.00 68 1007.2
20260906124526 47 360 0.0 6.0 0.00 0.00 0.00 68 1007.0
20260906123030 47 360 0.0 3.0 0.00 0.00 0.00 68 1007.0
20260906121527 47 360 0.0 5.0 0.00 0.00 0.00 68 1007.1
20260906120021 47 360 0.0 6.0 0.00 0.00 0.00 67 1007.2
20260906114519 47 360 1.0 7.0 0.00 0.00 0.00 67 1007.3
20260906113015 48 171 0.0 5.0 0.00 0.00 0.00 66 1007.3
20260906111512 48 171 0.0 0.0 0.00 0.00 0.00 65 1007.4
20260906110011 49 360 0.0 6.0 0.00 0.00 0.00 64 1007.4
20260906104511 49 360 0.0 0.0 0.00 0.00 0.00 65 1007.7
20260906103009 49 360 2.0 5.0 0.00 0.00 0.00 65 1007.6
20260906101506 49 173 0.0 8.0 0.00 0.00 0.00 62 1007.5
20260906100004 49 360 1.0 6.0 0.00 0.00 0.00 62 1007.5
20260906094502 49 360 3.0 7.0 0.00 0.00 0.00 61 1007.5
20260906093118 50 184 3.0 7.0 0.00 0.00 0.00 59 1007.5
20260906091557 51 184 3.0 7.0 0.00 0.00 0.00 59 1007.6
20260906090053 52 184 0.0 7.0 0.00 0.00 0.00 58 1007.5
20260906084552 53 186 0.0 0.0 0.00 0.00 0.00 58 1007.6
20260906083051 53 186 4.0 8.0 0.00 0.00 0.00 57 1007.7
20260906081550 53 360 1.0 6.0 0.00 0.00 0.00 60 1007.6
20260906080047 53 360 3.0 7.0 0.00 0.00 0.00 60 1007.6
20260906074546 53 360 1.0 9.0 0.00 0.00 0.00 59 1007.6
20260906073042 53 360 0.0 8.0 0.00 0.00 0.00 59 1007.7
20260906071542 54 149 0.0 4.0 0.00 0.00 0.00 58 1007.6
20260906070037 53 360 0.0 9.0 0.00 0.00 0.00 60 1007.4
20260906064537 54 360 0.0 7.0 0.00 0.00 0.00 59 1007.4
20260906063036 54 360 0.0 0.0 0.00 0.00 0.00 58 1007.4
20260906061536 55 360 1.0 6.0 0.00 0.00 0.00 57 1007.5
20260906060036 55 360 4.0 9.0 0.00 0.00 0.00 57 1007.5
20260906054535 56 360 2.0 6.0 0.00 0.00 0.00 57 1007.5
20260906053021 56 360 0.0 1.0 0.00 0.00 0.00 56 1007.5
20260906051523 56 127 0.0 0.0 0.00 0.00 0.00 59 1007.5
20260906050023 57 127 0.0 1.0 0.00 0.00 0.00 58 1007.5
20260906044521 57 127 0.0 4.0 0.00 0.00 0.00 56 1007.5
20260906043019 58 127 0.0 0.0 0.00 0.00 0.00 55 1007.4
20260906041523 59 127 0.0 5.0 0.00 0.00 0.00 55 1007.4
20260906040019 59 127 1.0 4.0 0.00 0.00 0.00 54 1007.1
20260906034518 59 151 0.0 4.0 0.00 0.00 0.00 54 1006.9
20260906033017 60 150 0.0 3.0 0.00 0.00 0.00 54 1006.8
20260906031516 60 150 0.0 5.0 0.00 0.00 0.00 53 1006.7
20260906030016 60 210 2.0 7.0 0.00 0.00 0.00 52 1006.3
20260906024516 61 123 0.0 8.0 0.00 0.00 0.00 52 1006.1
20260906023020 62 119 0.0 4.0 0.00 0.00 0.00 50 1005.8
20260906021516 62 115 0.0 3.0 0.00 0.00 0.00 49 1005.8
20260906020014 63 141 2.0 9.0 0.00 0.00 0.00 47 1005.9
20260906014519 65 136 3.0 15.0 0.00 0.00 0.00 45 1005.8
20260906013015 67 151 0.0 11.0 0.00 0.00 0.00 41 1006.1
20260906011515 68 88 0.0 5.0 0.00 0.00 0.00 38 1006.3
20260906010011 69 42 2.0 12.0 0.00 0.00 0.00 29 1006.2
20260906004511 69 32 4.0 13.0 0.00 0.00 0.00 30 1006.1
20260906003010 70 18 7.0 17.0 0.00 0.00 0.00 28 1006.0
20260906001508 70 51 5.0 15.0 0.00 0.00 0.00 28 1006.0
20260906000009 71 47 6.0 15.0 0.00 0.00 0.00 26 1006.0
20260905234508 74 360 9.0 22.0 0.00 0.00 0.00 23 1006.0
20260905233013 74 360 11.0 21.0 0.00 0.00 0.00 23 1006.0
20260905231506 74 360 8.0 18.0 0.00 0.00 0.00 23 1006.1
20260905230007 74 360 12.0 20.0 0.00 0.00 0.00 24 1006.3
20260905224504 74 360 10.0 23.0 0.00 0.00 0.00 24 1006.5
20260905223004 74 360 15.0 23.0 0.00 0.00 0.00 23 1006.6
20260905221501 74 360 8.0 22.0 0.00 0.00 0.00 25 1006.6
20260905220100 75 360 17.0 28.0 0.00 0.00 0.00 23 1006.6
20260905214559 75 360 12.0 22.0 0.00 0.00 0.00 22 1006.5
20260905213056 75 360 12.0 22.0 0.00 0.00 0.00 24 1006.8
20260905211558 75 360 7.0 17.0 0.00 0.00 0.00 26 1007.0
20260905210052 75 360 11.0 22.0 0.00 0.00 0.00 24 1007.2
20260905204551 75 360 9.0 18.0 0.00 0.00 0.00 26 1007.2